TimeEST,TemperatureF,Dew PointF,Humidity,Sea Level PressureIn,VisibilityMPH,Wind Direction,Wind SpeedMPH,Gust SpeedMPH,PrecipitationIn,Events,Conditions,WindDirDegrees,DateUTC
12:54 AM,30.0,25.0,82,30.02,10.0,Calm,Calm,-,N/A,,Clear,0,2013-12-02 05:54:00
1:54 AM,28.0,25.0,88,30.00,10.0,Calm,Calm,-,N/A,,Clear,0,2013-12-02 06:54:00
2:54 AM,28.0,25.0,88,29.99,10.0,Calm,Calm,-,N/A,,Partly Cloudy,0,2013-12-02 07:54:00
3:54 AM,28.9,25.0,85,29.96,10.0,Calm,Calm,-,N/A,,Clear,0,2013-12-02 08:54:00
4:54 AM,28.9,26.1,89,29.96,10.0,Calm,Calm,-,N/A,,Clear,0,2013-12-02 09:54:00
5:54 AM,28.0,25.0,88,29.96,10.0,Calm,Calm,-,N/A,,Clear,0,2013-12-02 10:54:00
6:54 AM,28.0,26.1,92,29.96,10.0,Calm,Calm,-,N/A,,Clear,0,2013-12-02 11:54:00
7:54 AM,30.0,26.1,85,29.97,10.0,Variable,6.9,-,N/A,,Clear,0,2013-12-02 12:54:00
8:54 AM,37.0,30.9,79,29.96,10.0,Calm,Calm,-,N/A,,Clear,0,2013-12-02 13:54:00
9:54 AM,46.0,34.0,63,29.95,10.0,Calm,Calm,-,N/A,,Overcast,0,2013-12-02 14:54:00
10:54 AM,50.0,30.9,48,29.94,10.0,Calm,Calm,-,N/A,,Overcast,0,2013-12-02 15:54:00
11:54 AM,51.1,32.0,48,29.91,10.0,Calm,Calm,-,N/A,,Overcast,0,2013-12-02 16:54:00
12:54 PM,51.1,32.0,48,29.88,10.0,ESE,4.6,-,N/A,,Overcast,110,2013-12-02 17:54:00
1:54 PM,53.1,34.0,48,29.88,10.0,Calm,Calm,-,N/A,,Overcast,0,2013-12-02 18:54:00
2:54 PM,51.1,33.1,50,29.87,10.0,NE,4.6,-,N/A,,Overcast,50,2013-12-02 19:54:00
3:54 PM,51.1,34.0,52,29.87,10.0,Calm,Calm,-,N/A,,Overcast,0,2013-12-02 20:54:00
4:54 PM,48.0,37.0,66,29.88,10.0,Calm,Calm,-,N/A,,Overcast,0,2013-12-02 21:54:00
5:54 PM,45.0,36.0,71,29.88,10.0,Calm,Calm,-,N/A,,Overcast,0,2013-12-02 22:54:00
6:54 PM,45.0,36.0,71,29.89,10.0,Calm,Calm,-,N/A,,Overcast,0,2013-12-02 23:54:00
7:54 PM,42.1,37.0,82,29.89,10.0,Calm,Calm,-,N/A,,Overcast,0,2013-12-03 00:54:00
8:54 PM,43.0,36.0,76,29.88,10.0,Calm,Calm,-,N/A,,Overcast,0,2013-12-03 01:54:00
9:54 PM,43.0,36.0,76,29.89,10.0,Calm,Calm,-,N/A,,Overcast,0,2013-12-03 02:54:00
10:54 PM,39.0,34.0,82,29.88,10.0,Calm,Calm,-,N/A,,Mostly Cloudy,0,2013-12-03 03:54:00
11:54 PM,36.0,33.1,89,29.89,10.0,Calm,Calm,-,N/A,,Clear,0,2013-12-03 04:54:00